sat.trackr.live / text

‹ back to catalog

STARLINK-2750

NORAD 48691 · 2021-044BF

PAYLOAD ACTIVE UNKNOWN

§ Identity

Operator
Country
US
Launch date
2021-05-26
Launch site
AFETR
Launch vehicle
Mass (kg)
RCS (m²)

Purposes: comms

External: N2YO · Heavens-Above · Gunter

§ Orbital elements

Epoch: 2026-05-25T02:39:27.028800Z

Period
94.01 min
Inclination
53.1592°
Eccentricity
0.0000955
Mean motion
15.31703425 rev/d
Perigee alt
470.1 km
Apogee alt
471.4 km
Semi-major
6,848.9 km
B*
6.2175e-5
RAAN
79.8703°
Arg perigee
90.1708°
Mean anomaly
269.9402°
Rev number
27,606

§ Raw data

STARLINK-27501 48691U 21044BF  26145.11072950  .00001565  00000+0  62175-4 0  99932 48691  53.1592  79.8703 0000955  90.1708 269.9402 15.31703425276067

JSON: /api/v1/satellites/48691 · /tle

For live sub-satellite position, see the globe view (requires WebGL).

§ Visibility from observer

Set your observer location to see the next 7 days of passes ≥ 10°. The values pass through the URL so the page stays shareable.

No JS? Fill the form by hand. The geolocation button needs JavaScript.